Terminal Aerodrome Forecast
Issued by NWS Charleston, WV

Current Version | Previous Version | Text Only | Print | Product List | Glossary Off
Versions: 1 2 3 4 5 6 7 8 9 10 11 12 13 14 15 16 17 18 19 20 21 22 23 24 25 26 27 28 29

000
FTUS41 KRLX 191739
TAFEKN
TAF
KEKN 191739Z 1918/2018 VRB03KT P6SM BKN200
     FM200700 00000KT P6SM OVC100
     FM201000 16005KT 5SM -SHRA OVC030
     FM201400 18004KT 4SM -RA BR OVC015=

USA.gov is the U.S. government's official web portal to all federal, state and local government web resources and services.